Arcata, CA

9:53 PM PST on December 17, 2017 (GMT -0800)
Arcata

Weather History for KACV - August, 2013

Change the Weather History Date:

Saturday, August 24, 2013

  Actual Average Record
Temperature  
Mean Temperature 56 °F -  
Max Temperature 62 °F 62 °F 72 °F (2010)
Min Temperature 50 °F 50 °F 43 °F (2012)
Degree Days  
Heating Degree Days 10    
Growing Degree Days 6 (Base 50)    
Moisture  
Dew Point 54 °F    
Average Humidity 95    
Maximum Humidity 100    
Minimum Humidity 81    
Precipitation  
Precipitation 0.00 in - - ()
Sea Level Pressure  
Sea Level Pressure 29.92 in    
Wind  
Wind Speed 3 mph (NW)    
Max Wind Speed 10 mph    
Max Gust Speed -    
Visibility 4 miles    
Events Fog    
Averages and records for this station are not official NWS values.
T = Trace of Precipitation, MM = Missing Value Source: NWS Daily Summary

Daily Weather History Graph

Daily Weather History Graph

Search for Another Location

Airport or City:

Trip Planner

Search our weather history database for the weather conditions in past years. The results will help you decide how hot, cold, wet, or windy it might be!

Date:

Astronomy

Aug. 24, 2013 Rise Set
Actual Time 6:35 AM PDT 8:01 PM PDT
Civil Twilight 6:06 AM PDT 8:29 PM PDT
Nautical Twilight 5:32 AM PDT 9:04 PM PDT
Astronomical Twilight 4:55 AM PDT 9:40 PM PDT
Moon 9:56 PM PDT (8/24) 10:43 AM PDT (8/24)
Length of Visible Light 14h 22m
Length of Day
13h 25m
Waning Gibbous, 83% of the Moon is Illuminated
Aug 24
Waning Gibbous
Aug 28
Last Quarter
Sep 5
New
Sep 12
First Quarter
Sep 19
Full

Hourly Weather History & Observations

Time (PDT) Temp. Dew Point Humidity Pressure Visibility Wind Dir Wind Speed Gust Speed Precip Events Conditions
12:53 AM 50.0 °F 50.0 °F 100% 29.95 in 10.0 mi Calm Calm - N/A   Clear
1:10 AM 50.0 °F 50.0 °F 100% 29.93 in 10.0 mi Calm Calm - N/A   Mostly Cloudy
1:24 AM 51.8 °F 50.0 °F 94% 29.93 in 10.0 mi ESE 3.5 mph - N/A   Overcast
1:53 AM 52.0 °F 51.1 °F 97% 29.94 in 10.0 mi Calm Calm - N/A   Mostly Cloudy
2:53 AM 55.0 °F 54.0 °F 96% 29.93 in 10.0 mi Calm Calm - N/A   Overcast
3:53 AM 55.0 °F 54.0 °F 96% 29.93 in 10.0 mi Calm Calm - N/A   Overcast
4:03 AM 55.4 °F 53.6 °F 94% 29.91 in 10.0 mi Calm Calm - N/A   Overcast
4:53 AM 55.9 °F 54.0 °F 93% 29.91 in 10.0 mi Calm Calm - N/A   Overcast
5:53 AM 55.9 °F 54.0 °F 93% 29.91 in 10.0 mi Calm Calm - N/A   Overcast
6:53 AM 55.0 °F 54.0 °F 96% 29.91 in 8.0 mi Calm Calm - N/A   Overcast
7:53 AM 55.9 °F 54.0 °F 93% 29.92 in 10.0 mi Calm Calm - N/A   Overcast
8:53 AM 57.0 °F 55.0 °F 93% 29.93 in 9.0 mi Calm Calm - N/A   Overcast
9:53 AM 59.0 °F 55.0 °F 87% 29.93 in 10.0 mi Calm Calm - N/A   Overcast
10:27 AM 60.8 °F 55.4 °F 82% 29.92 in 10.0 mi WNW 5.8 mph - N/A   Overcast
10:53 AM 61.0 °F 55.0 °F 81% 29.93 in 10.0 mi North 3.5 mph - N/A   Overcast
11:24 AM 60.8 °F 55.4 °F 82% 29.92 in 10.0 mi NW 9.2 mph - N/A   Scattered Clouds
11:40 AM 60.8 °F 55.4 °F 82% 29.92 in 10.0 mi NW 10.4 mph - N/A   Scattered Clouds
11:49 AM 60.8 °F 55.4 °F 82% 29.92 in 10.0 mi NW 9.2 mph - N/A   Mostly Cloudy
11:53 AM 60.1 °F 55.0 °F 83% 29.94 in 10.0 mi NW 10.4 mph - N/A   Mostly Cloudy
12:17 PM 57.2 °F 55.4 °F 94% 29.91 in 2.5 mi NW 8.1 mph - N/A   Overcast
12:28 PM 59.0 °F 55.4 °F 88% 29.91 in 1.8 mi NW 8.1 mph - N/A   Overcast
12:36 PM 59.0 °F 55.4 °F 88% 29.91 in 3.0 mi NW 8.1 mph - N/A   Overcast
12:47 PM 57.2 °F 55.4 °F 94% 29.92 in 1.5 mi NW 6.9 mph - N/A   Overcast
12:53 PM 57.9 °F 55.0 °F 90% 29.93 in 1.0 mi NW 5.8 mph - N/A   Overcast
1:37 PM 59.0 °F 55.4 °F 88% 29.91 in 2.5 mi WNW 6.9 mph - N/A   Overcast
1:46 PM 59.0 °F 55.4 °F 88% 29.91 in 4.0 mi WNW 4.6 mph - N/A   Overcast
1:53 PM 60.1 °F 55.0 °F 83% 29.93 in 7.0 mi WNW 4.6 mph - N/A   Overcast
2:15 PM 57.2 °F 55.4 °F 94% 29.91 in 10.0 mi WNW 5.8 mph - N/A   Overcast
2:27 PM 57.2 °F 53.6 °F 88% 29.91 in 1.5 mi NW 6.9 mph - N/A   Overcast
2:36 PM 55.4 °F 53.6 °F 94% 29.91 in 0.5 mi NW 5.8 mph - N/A Fog Fog
2:53 PM 55.9 °F 55.0 °F 97% 29.93 in 0.2 mi NW 6.9 mph - N/A Fog Fog
2:57 PM 55.4 °F 55.4 °F 100% 29.91 in 0.2 mi NW 6.9 mph - N/A Fog Fog
3:09 PM 57.2 °F 55.4 °F 94% 29.91 in 0.2 mi NW 8.1 mph - N/A Fog Fog
3:29 PM 55.4 °F 55.4 °F 100% 29.90 in 0.2 mi NNW 6.9 mph - N/A Fog Fog
3:41 PM 57.2 °F 55.4 °F 94% 29.90 in 0.2 mi North 5.8 mph - N/A Fog Fog
3:53 PM 55.9 °F 55.0 °F 97% 29.91 in 0.2 mi NNW 8.1 mph - N/A Fog Fog
4:09 PM 57.2 °F 55.4 °F 94% 29.90 in 0.5 mi NW 5.8 mph - N/A Fog Fog
4:18 PM 57.2 °F 55.4 °F 94% 29.89 in 0.2 mi NW 8.1 mph - N/A Fog Fog
4:46 PM 55.4 °F 53.6 °F 94% 29.90 in 0.2 mi NW 9.2 mph - N/A Fog Fog
4:53 PM 55.9 °F 55.0 °F 97% 29.92 in 0.2 mi NNW 8.1 mph - N/A Fog Fog
5:24 PM 55.4 °F 55.4 °F 100% 29.90 in 0.2 mi NW 6.9 mph - N/A Fog Fog
5:39 PM 55.4 °F 55.4 °F 100% 29.91 in 0.2 mi NW 4.6 mph - N/A Fog Fog
5:51 PM 55.4 °F 55.4 °F 100% 29.91 in 0.2 mi NW 3.5 mph - N/A Fog Fog
5:53 PM 55.0 °F 55.0 °F 100% 29.92 in 0.2 mi NNW 3.5 mph - N/A Fog Fog
6:01 PM 55.4 °F 55.4 °F 100% 29.90 in 0.2 mi NNW 4.6 mph - N/A Fog Fog
6:08 PM 55.4 °F 55.4 °F 100% 29.90 in 0.2 mi NW 4.6 mph - N/A Fog Fog
6:34 PM 55.4 °F 55.4 °F 100% 29.91 in 0.2 mi West 4.6 mph - N/A Fog Fog
6:43 PM 55.4 °F 55.4 °F 100% 29.91 in 0.2 mi West 3.5 mph - N/A Fog Fog
6:53 PM 55.0 °F 55.0 °F 100% 29.92 in 1.0 mi Calm Calm - N/A   Mist
6:55 PM 55.4 °F 55.4 °F 100% 29.90 in 3.0 mi Calm Calm - N/A   Overcast
7:09 PM 55.4 °F 53.6 °F 94% 29.90 in 2.0 mi Calm Calm - N/A   Overcast
7:19 PM 55.4 °F 55.4 °F 100% 29.90 in 4.0 mi South 3.5 mph - N/A   Overcast
7:53 PM 55.0 °F 55.0 °F 100% 29.92 in 7.0 mi SSE 3.5 mph - N/A   Overcast
8:53 PM 55.0 °F 54.0 °F 96% 29.93 in 6.0 mi Calm Calm - N/A   Overcast
9:46 PM 53.6 °F 53.6 °F 100% 29.92 in 2.5 mi Calm Calm - N/A   Overcast
9:53 PM 54.0 °F 54.0 °F 100% 29.93 in 2.5 mi Calm Calm - N/A   Overcast
10:09 PM 53.6 °F 53.6 °F 100% 29.92 in 1.2 mi Calm Calm - N/A   Overcast
10:38 PM 53.6 °F 53.6 °F 100% 29.91 in 0.8 mi Calm Calm - N/A   Mist
10:53 PM 53.1 °F 53.1 °F 100% 29.93 in 1.0 mi SSE 3.5 mph - N/A   Mist
11:00 PM 53.6 °F 53.6 °F 100% 29.91 in 0.5 mi Calm Calm - N/A Fog Fog
11:16 PM 53.6 °F 53.6 °F 100% 29.91 in 2.0 mi Calm Calm - N/A   Overcast
11:39 PM 53.6 °F 53.6 °F 100% 29.91 in 0.8 mi Calm Calm - N/A   Overcast
11:53 PM 54.0 °F 54.0 °F 100% 29.93 in 1.0 mi Calm Calm - N/A   Mist